QPF
0.01 0.01 0.00 0.00 0.00 0.00 0.00 0.00 0.00 0.00 0.00 0.00 0.00 0.01 0.00 0.00 0.00 0.00 0.00 0.00 0.00 0.00 0.00 0.00 0.00 0.00 0.00 0.00 0.00 0.00 0.01 0.01 0.03 0.05 0.04 0.04 0.03 0.02 0.01 0.02 0.02 0.01 0.02 0.03
0.01 0.01 0.01 0.00 0.00 0.00 0.00 0.00 0.00 0.00 0.00 0.00 0.00 0.01 0.01 0.00 0.00 0.00 0.00 0.00 0.00 0.00 0.00 0.00 0.00 0.00 0.00 0.00 0.00 0.00 0.01 0.01 0.02 0.04 0.04 0.03 0.03 0.03 0.02 0.03 0.02 0.02 0.02 0.03
0.00 0.00 0.00 0.00 0.00 0.00 0.00 0.00 0.00 0.00 0.00 0.00 0.00 0.01 0.01 0.00 0.00 0.00 0.00 0.00 0.00 0.00 0.00 0.00 0.00 0.00 0.00 0.00 0.01 0.01 0.03 0.03 0.02 0.01 0.01 0.02 0.03 0.03 0.03 0.03 0.03 0.03 0.03 0.03
0.00 0.00 0.00 0.00 0.00 0.00 0.00 0.00 0.00 0.00 0.01 0.01 0.00 0.03 0.02 0.00 0.00 0.00 0.00 0.00 0.00 0.00 0.00 0.00 0.00 0.00 0.00 0.00 0.00 0.01 0.02 0.02 0.02 0.01 0.01 0.02 0.02 0.02 0.02 0.02 0.02 0.03 0.03 0.04
0.00 0.00 0.00 0.00 0.00 0.00 0.00 0.00 0.00 0.00 0.01 0.01 0.00 0.01 0.01 0.00 0.00 0.00 0.00 0.00 0.00 0.00 0.00 0.00 0.00 0.00 0.00 0.00 0.00 0.01 0.02 0.02 0.01 0.01 0.01 0.01 0.01 0.01 0.02 0.02 0.03 0.04 0.04 0.05
0.00 0.00 0.00 0.00 0.00 0.00 0.00 0.00 0.00 0.00 0.01 0.02 0.00 0.00 0.01 0.00 0.00 0.00 0.00 0.00 0.00 0.00 0.00 0.00 0.00 0.00 0.00 0.01 0.01 0.02 0.02 0.02 0.01 0.00 0.00 0.01 0.01 0.01 0.01 0.02 0.03 0.04 0.04 0.05
0.00 0.00 0.00 0.00 0.00 0.00 0.00 0.01 0.03 0.03 0.04 0.02 0.00 0.00 0.00 0.00 0.00 0.00 0.00 0.00 0.00 0.00 0.00 0.00 0.01 0.01 0.01 0.01 0.01 0.01 0.02 0.01 0.01 0.00 0.00 0.00 0.00 0.01 0.01 0.01 0.02 0.03 0.04 0.04
0.00 0.00 0.00 0.00 0.00 0.00 0.01 0.01 0.03 0.03 0.02 0.01 0.00 0.00 0.00 0.00 0.00 0.00 0.00 0.00 0.00 0.00 0.00 0.01 0.00 0.00 0.01 0.01 0.01 0.01 0.02 0.01 0.01 0.00 0.00 0.00 0.01 0.01 0.01 0.01 0.02 0.03 0.03 0.03
0.00 0.00 0.00 0.00 0.00 0.00 0.01 0.01 0.01 0.02 0.01 0.01 0.00 0.01 0.00 0.00 0.00 0.00 0.00 0.00 0.00 0.00 0.00 0.00 0.00 0.00 0.01 0.02 0.02 0.01 0.01 0.01 0.01 0.01 0.00 0.01 0.01 0.01 0.01 0.00 0.01 0.03 0.03 0.03
0.00 0.00 0.00 0.00 0.00 0.01 0.01 0.01 0.01 0.02 0.04 0.03 0.01 0.01 0.01 0.00 0.00 0.00 0.00 0.00 0.01 0.00 0.00 0.00 0.00 0.00 0.02 0.01 0.00 0.00 0.01 0.02 0.01 0.02 0.01 0.01 0.01 0.00 0.00 0.00 0.01 0.01 0.02 0.02
0.01 0.00 0.00 0.00 0.01 0.01 0.01 0.01 0.02 0.03 0.02 0.03 0.03 0.02 0.00 0.00 0.00 0.00 0.00 0.00 0.00 0.00 0.00 0.00 0.00 0.00 0.01 0.01 0.00 0.01 0.02 0.03 0.03 0.02 0.02 0.02 0.01 0.00 0.00 0.01 0.01 0.01 0.01 0.02
0.01 0.01 0.00 0.00 0.01 0.01 0.01 0.01 0.01 0.04 0.03 0.01 0.02 0.02 0.00 0.00 0.00 0.00 0.00 0.00 0.00 0.00 0.00 0.01 0.00 0.00 0.01 0.01 0.01 0.01 0.01 0.01 0.02 0.03 0.02 0.01 0.01 0.00 0.01 0.01 0.01 0.01 0.01 0.02
0.01 0.01 0.01 0.02 0.01 0.01 0.00 0.00 0.00 0.02 0.03 0.02 0.02 0.01 0.00 0.00 0.00 0.00 0.00 0.00 0.00 0.00 0.00 0.01 0.01 0.00 0.00 0.02 0.02 0.01 0.01 0.01 0.01 0.02 0.01 0.01 0.01 0.01 0.01 0.01 0.01 0.01 0.01 0.02
0.01 0.01 0.01 0.01 0.01 0.00 0.00 0.00 0.00 0.01 0.02 0.02 0.02 0.01 0.00 0.00 0.00 0.00 0.00 0.00 0.00 0.00 0.00 0.00 0.01 0.01 0.01 0.01 0.01 0.01 0.01 0.01 0.02 0.01 0.01 0.01 0.01 0.02 0.02 0.01 0.01 0.01 0.01 0.01
0.00 0.00 0.00 0.00 0.00 0.00 0.00 0.00 0.00 0.00 0.01 0.02 0.02 0.02 0.01 0.01 0.01 0.00 0.00 0.00 0.00 0.00 0.00 0.00 0.00 0.00 0.00 0.01 0.00 0.00 0.00 0.01 0.01 0.01 0.01 0.01 0.01 0.02 0.01 0.01 0.01 0.01 0.01 0.00
0.00 0.00 0.00 0.00 0.00 0.00 0.00 0.00 0.00 0.00 0.01 0.01 0.02 0.02 0.01 0.01 0.01 0.01 0.00 0.00 0.00 0.00 0.00 0.00 0.00 0.00 0.00 0.00 0.00 0.00 0.00 0.01 0.00 0.00 0.00 0.00 0.01 0.01 0.01 0.01 0.01 0.01 0.01 0.01
0.00 0.00 0.00 0.00 0.01 0.00 0.00 0.00 0.00 0.00 0.00 0.01 0.02 0.02 0.01 0.00 0.00 0.00 0.00 0.00 0.00 0.00 0.00 0.00 0.00 0.00 0.00 0.00 0.00 0.00 0.00 0.00 0.00 0.00 0.01 0.01 0.01 0.01 0.01 0.01 0.01 0.01 0.01 0.01
0.00 0.00 0.01 0.01 0.02 0.03 0.01 0.00 0.00 0.00 0.00 0.01 0.01 0.01 0.00 0.00 0.00 0.00 0.00 0.00 0.00 0.00 0.00 0.00 0.00 0.00 0.00 0.00 0.00 0.00 0.01 0.00 0.00 0.01 0.01 0.01 0.01 0.01 0.01 0.01 0.01 0.01 0.01 0.01
0.01 0.00 0.01 0.01 0.02 0.02 0.01 0.00 0.00 0.00 0.00 0.01 0.01 0.01 0.00 0.00 0.00 0.00 0.00 0.00 0.00 0.00 0.00 0.00 0.00 0.01 0.01 0.01 0.01 0.01 0.01 0.00 0.00 0.01 0.01 0.01 0.01 0.01 0.01 0.01 0.01 0.01 0.01 0.01
0.02 0.01 0.01 0.02 0.02 0.01 0.00 0.00 0.00 0.00 0.00 0.00 0.01 0.01 0.00 0.00 0.00 0.00 0.00 0.00 0.00 0.00 0.00 0.00 0.00 0.00 0.00 0.01 0.01 0.01 0.01 0.00 0.00 0.00 0.01 0.01 0.01 0.01 0.01 0.01 0.01 0.01 0.01 0.01
0.02 0.02 0.02 0.02 0.03 0.02 0.01 0.00 0.00 0.01 0.01 0.00 0.00 0.00 0.00 0.00 0.00 0.00 0.00 0.00 0.00 0.00 0.00 0.00 0.00 0.00 0.00 0.00 0.01 0.00 0.00 0.00 0.00 0.00 0.00 0.01 0.01 0.01 0.01 0.01 0.01 0.01 0.01 0.01
0.01 0.02 0.02 0.02 0.03 0.02 0.02 0.01 0.02 0.01 0.00 0.00 0.00 0.00 0.00 0.00 0.00 0.00 0.00 0.00 0.00 0.00 0.00 0.00 0.00 0.00 0.00 0.00 0.00 0.00 0.00 0.00 0.00 0.01 0.01 0.00 0.00 0.01 0.01 0.01 0.01 0.01 0.01 0.01
0.00 0.01 0.01 0.02 0.02 0.02 0.01 0.01 0.02 0.01 0.01 0.00 0.00 0.00 0.00 0.00 0.00 0.00 0.00 0.00 0.00 0.00 0.00 0.00 0.00 0.00 0.00 0.00 0.00 0.01 0.01 0.00 0.00 0.01 0.01 0.01 0.01 0.01 0.01 0.01 0.01 0.01 0.01 0.01
0.00 0.00 0.00 0.01 0.01 0.01 0.01 0.01 0.01 0.01 0.00 0.00 0.00 0.00 0.00 0.00 0.00 0.00 0.00 0.00 0.00 0.00 0.00 0.00 0.00 0.00 0.00 0.00 0.00 0.00 0.00 0.00 0.00 0.00 0.00 0.01 0.01 0.01 0.01 0.01 0.01 0.01 0.01 0.01
0.00 0.00 0.00 0.01 0.00 0.00 0.00 0.01 0.01 0.01 0.00 0.00 0.00 0.00 0.00 0.00 0.00 0.00 0.00 0.00 0.00 0.00 0.00 0.00 0.00 0.00 0.00 0.00 0.00 0.00 0.00 0.00 0.00 0.00 0.00 0.00 0.00 0.00 0.01 0.00 0.00 0.01 0.01 0.01
0.00 0.00 0.01 0.01 0.01 0.01 0.00 0.01 0.01 0.01 0.01 0.00 0.00 0.00 0.00 0.00 0.00 0.00 0.00 0.00 0.00 0.00 0.00 0.00 0.00 0.00 0.00 0.00 0.00 0.00 0.00 0.00 0.00 0.00 0.00 0.01 0.00 0.00 0.00 0.01 0.01 0.01 0.01 0.01
MSLP
1012.99 1013.63 1014.15 1014.55 1014.86 1015.10 1015.31 1015.54 1015.79 1016.05 1016.31 1016.54 1016.72 1016.83 1016.86 1016.83 1016.77 1016.69 1016.63 1016.59 1016.58 1016.59 1016.62 1016.65 1016.66 1016.66 1016.65 1016.65 1016.68 1016.75 1016.87 1017.05 1017.27 1017.52 1017.77 1018.01 1018.21 1018.36 1018.47 1018.54 1018.59 1018.61 1018.64 1018.67
1013.54 1014.00 1014.33 1014.53 1014.66 1014.78 1014.93 1015.14 1015.43 1015.76 1016.09 1016.38 1016.60 1016.70 1016.71 1016.62 1016.50 1016.37 1016.29 1016.26 1016.31 1016.41 1016.55 1016.68 1016.78 1016.84 1016.87 1016.87 1016.87 1016.90 1016.99 1017.15 1017.37 1017.65 1017.94 1018.22 1018.46 1018.64 1018.74 1018.79 1018.79 1018.75 1018.72 1018.69
1014.01 1014.31 1014.45 1014.49 1014.49 1014.52 1014.63 1014.86 1015.18 1015.56 1015.94 1016.26 1016.46 1016.53 1016.47 1016.31 1016.11 1015.94 1015.84 1015.85 1015.97 1016.18 1016.44 1016.69 1016.90 1017.03 1017.09 1017.08 1017.06 1017.05 1017.10 1017.23 1017.45 1017.73 1018.05 1018.37 1018.65 1018.85 1018.96 1018.99 1018.95 1018.87 1018.78 1018.71
1014.37 1014.54 1014.55 1014.48 1014.41 1014.40 1014.52 1014.77 1015.14 1015.55 1015.95 1016.25 1016.40 1016.38 1016.22 1015.95 1015.66 1015.43 1015.32 1015.36 1015.56 1015.88 1016.27 1016.65 1016.96 1017.16 1017.26 1017.26 1017.21 1017.16 1017.17 1017.27 1017.47 1017.76 1018.10 1018.45 1018.76 1018.98 1019.10 1019.12 1019.06 1018.95 1018.83 1018.72
1014.61 1014.68 1014.62 1014.51 1014.43 1014.45 1014.61 1014.92 1015.33 1015.77 1016.15 1016.40 1016.46 1016.32 1016.02 1015.62 1015.22 1014.92 1014.78 1014.85 1015.12 1015.54 1016.04 1016.53 1016.94 1017.22 1017.35 1017.36 1017.29 1017.21 1017.19 1017.25 1017.44 1017.73 1018.08 1018.45 1018.78 1019.02 1019.15 1019.17 1019.10 1018.97 1018.82 1018.70
1014.69 1014.71 1014.64 1014.55 1014.52 1014.61 1014.86 1015.24 1015.71 1016.16 1016.52 1016.69 1016.64 1016.36 1015.91 1015.36 1014.85 1014.46 1014.29 1014.36 1014.68 1015.17 1015.77 1016.36 1016.85 1017.19 1017.36 1017.38 1017.30 1017.20 1017.14 1017.18 1017.35 1017.62 1017.98 1018.36 1018.70 1018.95 1019.09 1019.10 1019.02 1018.88 1018.72 1018.59
1014.58 1014.60 1014.56 1014.54 1014.61 1014.82 1015.18 1015.65 1016.17 1016.64 1016.96 1017.05 1016.88 1016.46 1015.86 1015.18 1014.55 1014.09 1013.87 1013.94 1014.28 1014.83 1015.48 1016.14 1016.69 1017.08 1017.28 1017.32 1017.24 1017.12 1017.04 1017.06 1017.20 1017.46 1017.80 1018.17 1018.50 1018.75 1018.88 1018.89 1018.81 1018.66 1018.50 1018.37
1014.28 1014.32 1014.35 1014.44 1014.63 1014.97 1015.45 1016.01 1016.58 1017.06 1017.34 1017.35 1017.08 1016.55 1015.83 1015.04 1014.33 1013.80 1013.54 1013.60 1013.95 1014.52 1015.21 1015.90 1016.49 1016.91 1017.14 1017.19 1017.12 1017.00 1016.90 1016.90 1017.01 1017.24 1017.55 1017.89 1018.20 1018.42 1018.54 1018.54 1018.45 1018.31 1018.15 1018.03
1013.80 1013.89 1014.01 1014.21 1014.53 1014.99 1015.57 1016.21 1016.81 1017.28 1017.53 1017.48 1017.14 1016.53 1015.74 1014.89 1014.13 1013.56 1013.29 1013.33 1013.68 1014.25 1014.95 1015.65 1016.26 1016.70 1016.94 1017.01 1016.95 1016.84 1016.74 1016.72 1016.81 1017.00 1017.26 1017.55 1017.81 1018.00 1018.09 1018.07 1017.97 1017.83 1017.69 1017.59
1013.19 1013.35 1013.56 1013.87 1014.30 1014.86 1015.50 1016.18 1016.79 1017.24 1017.44 1017.35 1016.96 1016.32 1015.51 1014.65 1013.89 1013.34 1013.07 1013.11 1013.45 1014.00 1014.68 1015.37 1015.98 1016.42 1016.68 1016.78 1016.74 1016.65 1016.56 1016.54 1016.60 1016.75 1016.96 1017.19 1017.39 1017.52 1017.57 1017.53 1017.43 1017.31 1017.20 1017.13
1012.55 1012.78 1013.08 1013.48 1013.98 1014.59 1015.26 1015.92 1016.50 1016.90 1017.05 1016.92 1016.52 1015.88 1015.10 1014.29 1013.58 1013.07 1012.83 1012.88 1013.20 1013.74 1014.39 1015.05 1015.63 1016.07 1016.35 1016.47 1016.48 1016.42 1016.36 1016.34 1016.39 1016.50 1016.66 1016.83 1016.96 1017.04 1017.06 1017.00 1016.91 1016.81 1016.75 1016.74
1011.96 1012.27 1012.66 1013.12 1013.66 1014.27 1014.91 1015.51 1016.00 1016.32 1016.41 1016.24 1015.83 1015.23 1014.51 1013.78 1013.15 1012.72 1012.52 1012.59 1012.91 1013.41 1014.01 1014.63 1015.18 1015.62 1015.91 1016.07 1016.13 1016.13 1016.11 1016.12 1016.17 1016.26 1016.38 1016.49 1016.58 1016.62 1016.60 1016.55 1016.48 1016.43 1016.42 1016.48
1011.51 1011.91 1012.37 1012.87 1013.41 1013.98 1014.53 1015.03 1015.40 1015.60 1015.60 1015.38 1014.97 1014.41 1013.77 1013.14 1012.62 1012.26 1012.12 1012.21 1012.51 1012.97 1013.52 1014.09 1014.60 1015.03 1015.34 1015.55 1015.67 1015.73 1015.78 1015.83 1015.91 1016.00 1016.10 1016.18 1016.24 1016.26 1016.25 1016.22 1016.20 1016.21 1016.28 1016.42
1011.23 1011.72 1012.23 1012.75 1013.27 1013.76 1014.19 1014.54 1014.75 1014.82 1014.71 1014.43 1014.01 1013.48 1012.92 1012.40 1011.97 1011.70 1011.62 1011.72 1012.00 1012.41 1012.90 1013.40 1013.88 1014.29 1014.62 1014.87 1015.05 1015.20 1015.32 1015.44 1015.56 1015.68 1015.79 1015.88 1015.94 1015.97 1015.99 1016.01 1016.06 1016.15 1016.31 1016.54
1011.10 1011.67 1012.22 1012.74 1013.20 1013.59 1013.89 1014.07 1014.11 1014.02 1013.79 1013.44 1013.00 1012.51 1012.01 1011.57 1011.24 1011.04 1011.00 1011.12 1011.37 1011.72 1012.14 1012.58 1013.00 1013.39 1013.73 1014.03 1014.28 1014.50 1014.71 1014.91 1015.10 1015.27 1015.42 1015.54 1015.64 1015.72 1015.80 1015.90 1016.03 1016.23 1016.49 1016.80
1011.04 1011.66 1012.23 1012.73 1013.13 1013.41 1013.56 1013.57 1013.45 1013.21 1012.86 1012.44 1011.97 1011.50 1011.06 1010.70 1010.44 1010.31 1010.30 1010.41 1010.63 1010.92 1011.27 1011.64 1012.01 1012.37 1012.71 1013.04 1013.35 1013.65 1013.94 1014.22 1014.48 1014.72 1014.94 1015.13 1015.29 1015.45 1015.62 1015.81 1016.05 1016.35 1016.71 1017.11
1010.94 1011.58 1012.14 1012.60 1012.93 1013.10 1013.12 1012.98 1012.72 1012.35 1011.90 1011.42 1010.94 1010.48 1010.09 1009.79 1009.60 1009.51 1009.52 1009.63 1009.81 1010.05 1010.33 1010.63 1010.94 1011.27 1011.60 1011.94 1012.29 1012.65 1013.01 1013.37 1013.71 1014.03 1014.33 1014.60 1014.85 1015.11 1015.38 1015.68 1016.03 1016.44 1016.89 1017.37
1010.73 1011.32 1011.84 1012.23 1012.47 1012.54 1012.45 1012.21 1011.84 1011.38 1010.87 1010.36 1009.87 1009.44 1009.10 1008.86 1008.72 1008.67 1008.71 1008.81 1008.97 1009.16 1009.37 1009.61 1009.86 1010.14 1010.45 1010.79 1011.16 1011.55 1011.97 1012.38 1012.79 1013.19 1013.57 1013.94 1014.29 1014.65 1015.03 1015.45 1015.90 1016.41 1016.94 1017.48
1010.34 1010.84 1011.25 1011.55 1011.71 1011.70 1011.53 1011.21 1010.79 1010.29 1009.76 1009.24 1008.78 1008.39 1008.10 1007.92 1007.83 1007.83 1007.89 1007.99 1008.13 1008.28 1008.45 1008.63 1008.84 1009.07 1009.34 1009.66 1010.02 1010.43 1010.86 1011.32 1011.78 1012.25 1012.70 1013.15 1013.61 1014.07 1014.56 1015.08 1015.63 1016.21 1016.81 1017.40
1009.82 1010.15 1010.43 1010.61 1010.67 1010.59 1010.37 1010.03 1009.59 1009.10 1008.59 1008.11 1007.69 1007.36 1007.13 1007.01 1006.97 1007.01 1007.10 1007.22 1007.35 1007.48 1007.62 1007.76 1007.92 1008.10 1008.33 1008.61 1008.95 1009.34 1009.77 1010.24 1010.74 1011.25 1011.77 1012.30 1012.83 1013.39 1013.97 1014.58 1015.21 1015.86 1016.50 1017.13
1009.24 1009.37 1009.47 1009.51 1009.47 1009.34 1009.09 1008.75 1008.35 1007.90 1007.45 1007.04 1006.69 1006.42 1006.25 1006.19 1006.20 1006.28 1006.39 1006.53 1006.66 1006.79 1006.90 1007.01 1007.13 1007.28 1007.46 1007.69 1007.98 1008.34 1008.75 1009.22 1009.72 1010.26 1010.82 1011.41 1012.02 1012.66 1013.31 1013.99 1014.68 1015.38 1016.06 1016.70
1008.72 1008.62 1008.53 1008.43 1008.29 1008.11 1007.86 1007.55 1007.20 1006.83 1006.46 1006.12 1005.84 1005.65 1005.53 1005.51 1005.56 1005.67 1005.81 1005.95 1006.09 1006.22 1006.32 1006.41 1006.50 1006.60 1006.73 1006.91 1007.15 1007.46 1007.84 1008.28 1008.78 1009.33 1009.92 1010.56 1011.22 1011.92 1012.63 1013.37 1014.10 1014.83 1015.52 1016.18
1008.36 1008.03 1007.75 1007.51 1007.30 1007.08 1006.84 1006.58 1006.30 1006.01 1005.72 1005.46 1005.25 1005.11 1005.04 1005.04 1005.10 1005.22 1005.36 1005.51 1005.65 1005.77 1005.86 1005.93 1005.99 1006.05 1006.14 1006.27 1006.46 1006.71 1007.05 1007.46 1007.94 1008.49 1009.10 1009.77 1010.47 1011.21 1011.98 1012.75 1013.51 1014.26 1014.96 1015.62
1008.22 1007.68 1007.24 1006.89 1006.61 1006.37 1006.16 1005.96 1005.75 1005.53 1005.33 1005.13 1004.97 1004.85 1004.79 1004.79 1004.85 1004.95 1005.07 1005.20 1005.33 1005.43 1005.51 1005.55 1005.58 1005.61 1005.65 1005.74 1005.87 1006.07 1006.36 1006.74 1007.20 1007.75 1008.37 1009.05 1009.79 1010.57 1011.36 1012.16 1012.94 1013.70 1014.41 1015.07
1008.28 1007.59 1007.03 1006.60 1006.27 1006.04 1005.86 1005.71 1005.57 1005.42 1005.27 1005.12 1004.98 1004.86 1004.79 1004.76 1004.77 1004.83 1004.91 1005.00 1005.09 1005.16 1005.21 1005.23 1005.23 1005.22 1005.22 1005.26 1005.35 1005.51 1005.76 1006.10 1006.55 1007.09 1007.71 1008.41 1009.17 1009.97 1010.79 1011.60 1012.40 1013.16 1013.88 1014.54
1008.44 1007.67 1007.04 1006.58 1006.25 1006.03 1005.89 1005.79 1005.70 1005.61 1005.49 1005.36 1005.22 1005.08 1004.96 1004.88 1004.83 1004.82 1004.83 1004.87 1004.90 1004.93 1004.93 1004.91 1004.88 1004.83 1004.80 1004.80 1004.85 1004.98 1005.20 1005.52 1005.95 1006.48 1007.11 1007.81 1008.58 1009.40 1010.23 1011.06 1011.86 1012.63 1013.34 1014.00
Thickness
5768 5756 5746 5752 5756 5753 5751 5747 5743 5748 5761 5754 5745 5744 5751 5759 5757 5753 5753 5752 5750 5749 5751 5751 5749 5747 5744 5741 5738 5735 5731 5728 5725 5720 5718 5715 5713 5713 5712 5712 5711 5711 5710 5709
5754 5748 5760 5765 5762 5756 5751 5744 5743 5751 5762 5755 5747 5746 5755 5759 5757 5757 5755 5754 5752 5751 5749 5748 5747 5744 5742 5738 5736 5733 5730 5726 5723 5720 5718 5715 5713 5711 5710 5709 5708 5708 5707 5706
5747 5755 5766 5760 5754 5749 5748 5745 5744 5744 5753 5757 5747 5739 5748 5758 5761 5760 5759 5757 5756 5751 5748 5745 5744 5741 5739 5735 5734 5732 5728 5725 5722 5719 5717 5714 5711 5709 5706 5705 5705 5705 5704 5703
5754 5763 5760 5753 5751 5750 5741 5756 5753 5747 5738 5735 5742 5720 5739 5752 5752 5753 5754 5754 5753 5753 5751 5747 5743 5740 5737 5735 5734 5731 5728 5724 5721 5718 5713 5709 5705 5702 5703 5703 5703 5703 5702 5701
5749 5758 5753 5748 5752 5755 5750 5759 5754 5749 5739 5733 5742 5729 5736 5752 5744 5748 5752 5753 5753 5753 5751 5747 5744 5741 5738 5735 5732 5729 5726 5722 5719 5716 5712 5708 5705 5704 5703 5702 5701 5700 5699 5699
5755 5765 5761 5757 5761 5761 5759 5753 5750 5746 5735 5717 5738 5732 5729 5746 5749 5750 5753 5754 5753 5752 5750 5747 5744 5741 5737 5733 5730 5726 5722 5719 5717 5714 5711 5708 5704 5702 5700 5698 5697 5696 5696 5696
5743 5753 5762 5763 5750 5754 5750 5732 5715 5713 5710 5719 5749 5739 5736 5756 5762 5758 5754 5753 5753 5751 5747 5743 5739 5736 5732 5729 5726 5723 5719 5715 5714 5712 5710 5707 5705 5702 5699 5696 5695 5693 5692 5691
5730 5732 5752 5756 5747 5740 5742 5735 5710 5699 5707 5723 5741 5734 5744 5763 5764 5763 5759 5755 5752 5749 5746 5742 5738 5734 5730 5727 5724 5721 5717 5714 5712 5710 5708 5707 5704 5701 5698 5697 5695 5693 5692 5690
5730 5732 5754 5757 5757 5748 5735 5733 5740 5724 5722 5717 5729 5739 5748 5759 5756 5755 5754 5750 5746 5745 5743 5740 5737 5734 5730 5726 5722 5720 5716 5713 5710 5709 5707 5705 5703 5700 5697 5696 5695 5693 5691 5690
5738 5727 5743 5751 5750 5748 5744 5739 5730 5717 5703 5701 5719 5727 5727 5738 5742 5747 5746 5744 5743 5743 5741 5739 5735 5733 5730 5727 5723 5720 5717 5713 5710 5708 5706 5704 5701 5699 5697 5694 5692 5691 5690 5688
5739 5725 5730 5737 5731 5729 5733 5730 5727 5722 5721 5702 5697 5712 5747 5746 5746 5744 5744 5744 5743 5741 5738 5736 5734 5732 5729 5726 5722 5718 5715 5712 5709 5706 5704 5701 5699 5697 5695 5692 5690 5689 5688 5686
5735 5725 5718 5729 5744 5747 5738 5731 5725 5708 5709 5715 5705 5711 5753 5753 5751 5748 5744 5744 5742 5740 5738 5735 5732 5729 5726 5723 5720 5717 5714 5711 5708 5706 5702 5699 5696 5694 5691 5689 5687 5686 5684 5683
5727 5715 5703 5709 5720 5731 5727 5730 5729 5724 5716 5710 5701 5710 5747 5748 5748 5746 5742 5740 5739 5737 5735 5732 5728 5725 5723 5720 5718 5716 5713 5709 5707 5703 5700 5697 5694 5690 5688 5686 5684 5683 5681 5679
5722 5711 5704 5696 5705 5717 5716 5721 5725 5719 5706 5706 5710 5715 5730 5735 5736 5739 5738 5738 5736 5733 5730 5727 5723 5722 5720 5718 5716 5713 5710 5707 5704 5700 5696 5693 5691 5688 5686 5683 5681 5679 5678 5675
5718 5707 5712 5717 5724 5722 5718 5717 5719 5716 5716 5709 5714 5719 5727 5732 5733 5735 5736 5734 5731 5727 5725 5723 5720 5719 5717 5715 5713 5710 5707 5704 5701 5697 5692 5690 5688 5686 5683 5680 5678 5675 5673 5672
5715 5705 5707 5707 5717 5718 5715 5719 5720 5719 5720 5718 5718 5719 5734 5737 5736 5733 5732 5729 5724 5722 5721 5720 5718 5716 5714 5712 5710 5707 5704 5702 5699 5694 5690 5687 5684 5681 5678 5676 5673 5670 5668 5666
5706 5700 5692 5691 5705 5705 5701 5718 5720 5719 5723 5720 5712 5720 5731 5728 5728 5728 5728 5724 5720 5718 5716 5715 5714 5713 5711 5711 5709 5704 5702 5699 5695 5690 5686 5683 5679 5676 5673 5671 5668 5665 5662 5661
5700 5695 5691 5687 5688 5676 5708 5731 5728 5722 5724 5727 5724 5725 5726 5726 5726 5728 5727 5722 5717 5716 5713 5712 5711 5710 5710 5709 5706 5703 5700 5696 5691 5686 5682 5679 5675 5671 5669 5666 5663 5660 5658 5656
5703 5692 5683 5678 5674 5685 5706 5720 5720 5713 5712 5723 5721 5721 5723 5725 5720 5717 5722 5721 5716 5714 5712 5710 5709 5707 5706 5703 5701 5698 5695 5691 5686 5682 5679 5676 5672 5667 5664 5660 5658 5656 5653 5651
5698 5693 5678 5674 5666 5668 5694 5715 5723 5713 5697 5715 5716 5713 5713 5711 5697 5700 5712 5714 5711 5709 5708 5705 5704 5702 5699 5697 5695 5691 5687 5684 5680 5678 5676 5672 5669 5664 5660 5657 5654 5652 5649 5646
5675 5675 5670 5667 5665 5677 5700 5710 5710 5683 5684 5705 5709 5707 5705 5700 5699 5703 5707 5705 5704 5702 5700 5699 5697 5693 5691 5691 5688 5684 5680 5677 5676 5674 5672 5668 5664 5660 5657 5653 5649 5646 5644 5641
5670 5665 5665 5665 5660 5666 5693 5696 5685 5686 5698 5700 5700 5702 5700 5698 5699 5698 5697 5695 5694 5693 5692 5690 5687 5685 5684 5683 5680 5676 5673 5673 5671 5668 5665 5662 5660 5657 5653 5648 5644 5641 5638 5634
5671 5671 5667 5668 5668 5683 5689 5688 5690 5691 5690 5692 5692 5694 5693 5690 5689 5688 5687 5686 5685 5684 5683 5682 5679 5676 5676 5675 5672 5668 5667 5667 5664 5661 5658 5656 5654 5650 5647 5643 5638 5634 5631 5628
5667 5675 5669 5667 5673 5678 5682 5684 5684 5684 5682 5685 5686 5686 5685 5682 5682 5679 5678 5677 5676 5676 5675 5674 5671 5668 5667 5667 5665 5663 5662 5660 5657 5654 5652 5650 5647 5644 5641 5637 5633 5629 5625 5622
5652 5657 5656 5657 5665 5668 5672 5672 5673 5674 5675 5675 5676 5676 5675 5674 5673 5672 5670 5669 5668 5667 5666 5665 5662 5660 5659 5659 5658 5657 5655 5653 5650 5648 5645 5644 5641 5638 5633 5630 5627 5624 5621 5618
5646 5645 5642 5644 5655 5653 5656 5663 5665 5663 5664 5664 5664 5664 5666 5665 5664 5663 5662 5661 5660 5659 5658 5656 5654 5652 5652 5651 5650 5649 5648 5646 5643 5640 5638 5636 5634 5631 5627 5623 5619 5617 5615 5613